Location: Unspecified
(35.7250°N, 0.0000°E)
Time: 07:23:01
(UTC+00:00)

Vanguard 1 Rocket - Pass Details

Date: 24 June 2019
Orbit: 651 x 4225 km, 34.3° (Epoch: 16 July)

Event Time Altitude Azimuth Distance (km) Brightness Sun altitude
Rises 12:26:30 0° 195° (SSW) 8,370 12.5 76.6°
Reaches altitude 10° 12:34:41 10° 183° (S) 7,419 12.4 75.8°
Maximum altitude 12:51:48 23° 140° (SE) 5,829 11.9 73.7°
Drops below altitude 10° 13:05:14 10° 97° (E) 5,870 11.5 71.7°
Sets 13:10:20 0° 84° (E) 6,353 11.5 70.8°
